Location: Hamayl? Da??
(36.7028°N, 30.1716°E)
Time: 12:04:39
(UTC+00:00)

Cosmos 2360 Rocket - Pass Details

Date: 04 August 2024
Orbit: 834 x 843 km, 71.0° (Epoch: 11 September)

Event Time Altitude Azimuth Distance (km) Brightness Sun altitude
Exits shadow 23:05:14 32° 64° (ENE) 1,410 3.6 -34.6°
Drops below altitude 10° 23:08:42 10° 37° (NE) 2,466 5.4 -34.4°
Sets 23:11:15 0° 30° (NNE) 3,403 6.4 -34.2°
